Showing default

GONETS D1 2, 23788

Orbit data source: Space-Track

GONETS D1 2, 23788 is a payload satellite owned by Gonets (CIS) in LEO that was launched on Mon, 19 Feb 1996 UTC via a TSIKLON-3 launch vehicle from the Plesetsk Missile And Space Complex (PKMTR). Payload-class satellites include a variety of spacecraft equipped with specific instruments for various scientific and technological missions. These include communications satellites like Starlink; space stations such as the ISS; scientific satellites like the Hubble; Earth observation satellites from companies like Planet Labs, Umbra, and HawkEye 360; GPS; miniature CubeSats for education and research; and military/defense satellites.

Loading next visibility...
Identifier
23788, 1996-009B
Orbit
LEO
Country
Flag of CISCIS
Related business
Manufacturer
NPO PM
Mission
Non-operational Civil Communications
Bus & Motor
STRELA-3, Unknown motor
Mass
225 kg wet, 225 kg dry
Launch date (UTC)
1996-02-19 (30 years ago)
Launch vehicle
TSIKLON-3
Launch site
Plesetsk Missile And Space Complex (PKMTR)
Object type
Payload
Rocket body
Debris
Shape & HBR
Cyl + 1 Ant, 3.5 m
Radar Cross Section
1.798 m², Medium (>0.1 m² and < 1m²)

Expand to show TLE details & history
Last TLE update: 9 hours ago

TLE from 9 hours ago
0 GONETS D1 2
1 23788U 96009B   25300.48205634  .00000038  00000-0  15187-3 0  9990
2 23788  82.5662  93.4031 0006363 231.9170 128.1348 12.63208685368713
Epoch: 2025-10-27T11:34Z
TLE epoch observation values (Epoch: 2025-10-27T11:34:09.667Z)
Latitude
-0.00005°
Longitude
-116.22046°
Altitude
1,415.522 km
Speed
7.151 km/s
True Right ascension
06h 13m 36s
True Declination
0° 00' 00"
Sunlit
Object was in daylight at epoch
Visualization orbit readout
Latitude
Unknown
Longitude
Unknown
Altitude
Unknown
Speed
Unknown
Apparent Right ascension
Unknown
Apparent Declination
Unknown
Sunlit
N/A
Visualization observer readout
Local Sidereal Time
16:19:37
Azimuth
Unknown
Elevation
Unknown
Doppler factor
Unknown
Orbital elements
Apogee altitude
1,412.002 km
Perigee altitude
1,402.095 km
Semi-major axis
7,785.185 km
Eccentricity
0.00064
Inclination
82.5662°
RAAN
93.4031°
Arg. of periapsis
231.917°
True anomaly
128.19212°
Mean anomaly
128.1348°
Eccentric anomaly
128.16346°
Mean motion
3.15966 °/min
Orbital period
113.94 mins
BSTAR
0.00015187
Loading maneuver chart data...
Computing Atmospheric mass density...
Loading historical data...
Loading historical data...
Loading historical data...
Loading historical data...
Loading historical data...
Loading historical data...
Loading historical data...

Documentation

Showing up to 5 results
|